• Em Portugal
  • Lista de países
  • Para 7 dias
  • Temperatura da água
  • Mapas de satélite
  • Mapa do tempo
  • Widgets de tempo
  • user-avatar
    Iniciar Sessão

    Previsão horária em Yeghegnadzor

    Hoje, 23 Janeiro, Terça-feira

    Tempo Temperatura Precipitação Vento Pressão Humidade
    00:00 -4°C° 0 mm 3 m/s 646 mmHg 46%
    01:00 -4°C° 0 mm 3 m/s 646 mmHg 47%
    02:00 -4°C° 0 mm 3 m/s 646 mmHg 48%
    03:00 -4°C° 0 mm 3 m/s 646 mmHg 51%
    04:00 -4°C° 0 mm 3 m/s 646 mmHg 52%
    05:00 -4°C° 0 mm 3 m/s 646 mmHg 53%
    06:00 -5°C° 0 mm 3 m/s 646 mmHg 54%
    07:00 -4°C° 0 mm 3 m/s 646 mmHg 55%
    08:00 -2°C° 0 mm 3 m/s 647 mmHg 57%
    09:00 +1°C° 0 mm 2 m/s 647 mmHg 59%
    10:00 +2°C° 0 mm 2 m/s 647 mmHg 57%
    11:00 +3°C° 0 mm 2 m/s 647 mmHg 55%
    12:00 +3°C° 0 mm 3 m/s 647 mmHg 53%
    13:00 +4°C° 0 mm 2 m/s 647 mmHg 54%
    14:00 +4°C° 0 mm 2 m/s 647 mmHg 56%
    15:00 +4°C° 0 mm 2 m/s 647 mmHg 57%
    16:00 +3°C° 0 mm 2 m/s 647 mmHg 56%
    17:00 +1°C° 0 mm 2 m/s 647 mmHg 55%
    18:00 -2°C° 0 mm 2 m/s 646 mmHg 54%
    19:00 -1°C° 0 mm 2 m/s 647 mmHg 54%
    20:00 -1°C° 0 mm 2 m/s 647 mmHg 53%
    21:00 -1°C° 0 mm 2 m/s 647 mmHg 53%
    22:00 -1°C° 0 mm 2 m/s 647 mmHg 55%
    23:00 -1°C° 0 mm 2 m/s 647 mmHg 58%

    Amanhã, 24 Janeiro, Quarta-feira

    Tempo Temperatura Precipitação Vento Pressão Humidade
    00:00 +1°C° 0 mm 2 m/s 647 mmHg 60%
    01:00 -1°C° 0 mm 2 m/s 647 mmHg 62%
    02:00 -1°C° 0 mm 2 m/s 648 mmHg 63%
    03:00 -1°C° 0 mm 2 m/s 648 mmHg 65%
    04:00 -1°C° 0 mm 2 m/s 648 mmHg 65%
    05:00 -2°C° 0 mm 2 m/s 648 mmHg 66%
    06:00 -2°C° 0 mm 2 m/s 648 mmHg 66%
    07:00 -2°C° 0 mm 2 m/s 649 mmHg 66%
    08:00 -1°C° 0 mm 2 m/s 649 mmHg 66%
    09:00 +1°C° 0 mm 2 m/s 650 mmHg 66%
    10:00 +2°C° 0 mm 2 m/s 650 mmHg 65%
    11:00 +3°C° 0 mm 2 m/s 650 mmHg 64%
    12:00 +5°C° 0 mm 1 m/s 650 mmHg 63%
    13:00 +5°C° 0 mm 1 m/s 650 mmHg 63%
    14:00 +5°C° 0 mm 1 m/s 650 mmHg 64%
    15:00 +5°C° 0 mm 1 m/s 650 mmHg 65%
    16:00 +4°C° 0,1 mm 1 m/s 650 mmHg 67%
    17:00 +3°C° 0,1 mm 1 m/s 650 mmHg 69%
    18:00 +2°C° 0,1 mm 1 m/s 650 mmHg 71%
    19:00 +2°C° 0,1 mm 1 m/s 650 mmHg 71%
    20:00 +2°C° 0,1 mm 1 m/s 651 mmHg 70%
    21:00 +1°C° 0,1 mm 2 m/s 651 mmHg 70%
    22:00 +1°C° 0,1 mm 2 m/s 651 mmHg 71%
    23:00 +1°C° 0,1 mm 2 m/s 651 mmHg 72%

    Depois de amanhã, 25 Janeiro, Quinta-feira

    Tempo Temperatura Precipitação Vento Pressão Humidade
    00:00 +1°C° 0,1 mm 2 m/s 651 mmHg 73%
    01:00 +1°C° 0,2 mm 2 m/s 651 mmHg 75%
    02:00 +1°C° 0,2 mm 2 m/s 652 mmHg 76%
    03:00 +1°C° 0,2 mm 2 m/s 652 mmHg 77%
    04:00 +1°C° 0,3 mm 2 m/s 652 mmHg 79%
    05:00 +1°C° 0,3 mm 2 m/s 652 mmHg 80%
    06:00 +1°C° 0,3 mm 2 m/s 652 mmHg 81%
    07:00 +2°C° 0,3 mm 1 m/s 652 mmHg 80%
    08:00 +3°C° 0,3 mm 1 m/s 652 mmHg 80%
    09:00 +3°C° 0,3 mm 1 m/s 653 mmHg 79%
    10:00 +4°C° 0,3 mm 1 m/s 653 mmHg 78%
    11:00 +4°C° 0,3 mm 1 m/s 653 mmHg 77%
    12:00 +5°C° 0,3 mm 1 m/s 653 mmHg 76%
    13:00 +5°C° 0,3 mm 1 m/s 652 mmHg 76%
    14:00 +5°C° 0,3 mm 1 m/s 652 mmHg 76%
    15:00 +5°C° 0,3 mm 1 m/s 652 mmHg 76%
    16:00 +5°C° 0,2 mm 1 m/s 652 mmHg 77%
    17:00 +4°C° 0,2 mm 1 m/s 652 mmHg 79%
    18:00 +3°C° 0,2 mm 1 m/s 652 mmHg 81%
    19:00 +3°C° 0,1 mm 1 m/s 652 mmHg 81%
    20:00 +1°C° 0,1 mm 2 m/s 652 mmHg 80%
    21:00 +1°C° 0,1 mm 2 m/s 652 mmHg 80%
    22:00 +1°C° 0 mm 2 m/s 652 mmHg 79%
    23:00 +1°C° 0 mm 2 m/s 652 mmHg 79%

    26 Janeiro, Sexta-feira

    Tempo Temperatura Precipitação Vento Pressão Humidade
    00:00 +1°C° 0 mm 2 m/s 652 mmHg 78%
    01:00 -1°C° 0 mm 2 m/s 652 mmHg 79%
    02:00 -1°C° 0 mm 2 m/s 652 mmHg 79%
    03:00 -1°C° 0 mm 2 m/s 651 mmHg 79%
    04:00 -1°C° 0,1 mm 2 m/s 651 mmHg 79%
    05:00 -1°C° 0,1 mm 2 m/s 651 mmHg 80%
    06:00 -1°C° 0,1 mm 2 m/s 651 mmHg 80%
    07:00 +1°C° 0,3 mm 2 m/s 651 mmHg 81%
    08:00 +1°C° 0,3 mm 2 m/s 651 mmHg 82%
    09:00 +1°C° 0,3 mm 2 m/s 651 mmHg 83%
    10:00 +2°C° 0,3 mm 2 m/s 651 mmHg 82%
    11:00 +2°C° 0,3 mm 2 m/s 651 mmHg 81%
    12:00 +3°C° 0,3 mm 2 m/s 651 mmHg 80%
    13:00 +4°C° 0,3 mm 1 m/s 651 mmHg 80%
    14:00 +4°C° 0,3 mm 1 m/s 650 mmHg 81%
    15:00 +4°C° 0,3 mm 1 m/s 650 mmHg 81%
    16:00 +3°C° 0,2 mm 1 m/s 650 mmHg 83%
    17:00 +3°C° 0,2 mm 1 m/s 650 mmHg 84%
    18:00 +2°C° 0,2 mm 1 m/s 650 mmHg 86%
    19:00 +2°C° 0,3 mm 1 m/s 651 mmHg 86%
    20:00 +2°C° 0,3 mm 1 m/s 651 mmHg 86%
    21:00 +1°C° 0,3 mm 1 m/s 651 mmHg 86%
    22:00 +1°C° 0,4 mm 1 m/s 651 mmHg 86%
    23:00 +1°C° 0,4 mm 1 m/s 651 mmHg 86%

    27 Janeiro, Sábado

    Tempo Temperatura Precipitação Vento Pressão Humidade
    00:00 +1°C° 0,4 mm 1 m/s 651 mmHg 87%
    01:00 -1°C° 0,4 mm 2 m/s 651 mmHg 87%
    02:00 -1°C° 0,4 mm 2 m/s 651 mmHg 88%
    03:00 -1°C° 0,4 mm 2 m/s 651 mmHg 88%
    04:00 -1°C° 0,3 mm 2 m/s 651 mmHg 88%
    05:00 -1°C° 0,3 mm 2 m/s 651 mmHg 88%
    06:00 -1°C° 0,3 mm 2 m/s 651 mmHg 88%
    07:00 -1°C° 0,2 mm 2 m/s 651 mmHg 87%
    08:00 -1°C° 0,2 mm 2 m/s 651 mmHg 85%
    09:00 -1°C° 0,2 mm 2 m/s 651 mmHg 84%
    10:00 +1°C° 0,2 mm 2 m/s 651 mmHg 82%
    11:00 +1°C° 0,2 mm 2 m/s 652 mmHg 79%
    12:00 +2°C° 0,2 mm 2 m/s 652 mmHg 77%
    13:00 +2°C° 0,2 mm 2 m/s 652 mmHg 77%
    14:00 +2°C° 0,2 mm 2 m/s 652 mmHg 77%
    15:00 +2°C° 0,2 mm 2 m/s 652 mmHg 77%
    16:00 +1°C° 0,2 mm 2 m/s 652 mmHg 78%
    17:00 -1°C° 0,2 mm 2 m/s 652 mmHg 80%
    18:00 -1°C° 0,2 mm 2 m/s 653 mmHg 82%
    19:00 -2°C° 0,1 mm 2 m/s 653 mmHg 83%
    20:00 -2°C° 0,1 mm 2 m/s 653 mmHg 83%
    21:00 -3°C° 0,1 mm 2 m/s 654 mmHg 83%
    22:00 -1°C° 0,1 mm 1 m/s 654 mmHg 83%
    23:00 -1°C° 0,1 mm 1 m/s 654 mmHg 83%

    28 Janeiro, Domingo

    Tempo Temperatura Precipitação Vento Pressão Humidade
    00:00 -2°C° 0,1 mm 1 m/s 655 mmHg 83%
    01:00 -2°C° 0 mm 1 m/s 655 mmHg 82%
    02:00 -2°C° 0 mm 1 m/s 655 mmHg 82%
    03:00 -5°C° 0 mm 2 m/s 655 mmHg 82%
    04:00 -5°C° 0 mm 2 m/s 655 mmHg 81%
    05:00 -6°C° 0 mm 2 m/s 655 mmHg 81%
    06:00 -6°C° 0 mm 2 m/s 655 mmHg 81%
    07:00 -5°C° 0 mm 2 m/s 656 mmHg 80%
    08:00 -2°C° 0 mm 1 m/s 656 mmHg 79%
    09:00 -1°C° 0 mm 1 m/s 657 mmHg 78%
    10:00 0°C° 0 mm 1 m/s 657 mmHg 76%
    11:00 -1°C° 0 mm 2 m/s 657 mmHg 74%
    12:00 -1°C° 0 mm 2 m/s 657 mmHg 72%
    13:00 +1°C° 0 mm 2 m/s 657 mmHg 72%
    14:00 +1°C° 0 mm 2 m/s 656 mmHg 72%
    15:00 +1°C° 0 mm 2 m/s 656 mmHg 72%
    16:00 -1°C° 0 mm 2 m/s 656 mmHg 74%
    17:00 0°C° 0 mm 1 m/s 656 mmHg 77%
    18:00 -2°C° 0 mm 1 m/s 656 mmHg 79%
    19:00 -2°C° 0 mm 1 m/s 656 mmHg 79%
    20:00 -3°C° 0 mm 1 m/s 656 mmHg 79%
    21:00 -3°C° 0 mm 1 m/s 656 mmHg 79%
    22:00 -4°C° 0 mm 1 m/s 656 mmHg 78%
    23:00 -4°C° 0 mm 1 m/s 656 mmHg 78%
    Mostrar mais